2023/02/23 00:00:00,89.7,-0.9
2023/02/23 00:10:00,89.7,-0.9
2023/02/23 00:20:00,89.7,-0.9
2023/02/23 00:30:00,89.7,-0.5
2023/02/23 00:40:00,89.6,-0.4
2023/02/23 00:50:00,89.7,-0.1
2023/02/23 01:00:00,89.7, 0.2
2023/02/23 01:10:00,89.7, 0.5
2023/02/23 01:20:00,89.7, 0.4
2023/02/23 01:30:00,89.6, 0.7
2023/02/23 01:40:00,89.6, 0.6
2023/02/23 01:50:00,89.6, 0.6
2023/02/23 02:00:00,89.6, 0.7
2023/02/23 02:10:00,89.6, 0.6
2023/02/23 02:20:00,89.5, 1.4
2023/02/23 02:30:00,89.5, 1.0
2023/02/23 02:40:00,89.5, 1.0
2023/02/23 02:50:00,89.4, 1.1
2023/02/23 03:00:00,89.4, 0.9
2023/02/23 03:10:00,89.4, 1.1
2023/02/23 03:20:00,89.4, 1.1
2023/02/23 03:30:00,89.4, 1.5
2023/02/23 03:40:00,89.4, 0.7
2023/02/23 03:50:00,89.4, 1.1
2023/02/23 04:00:00,89.4, 1.2
2023/02/23 04:10:00,89.3, 1.1
2023/02/23 04:20:00,89.3, 1.1
2023/02/23 04:30:00,89.4, 0.9
2023/02/23 04:40:00,89.4, 1.1
2023/02/23 04:50:00,89.3, 1.1
2023/02/23 05:00:00,89.4, 1.1
2023/02/23 05:10:00,89.3, 1.1
2023/02/23 05:20:00,89.4, 0.9
2023/02/23 05:30:00,89.4, 0.9
2023/02/23 05:40:00,89.4, 1.0
2023/02/23 05:50:00,89.4, 0.8
2023/02/23 06:00:00,89.4, 1.0
2023/02/23 06:10:00,89.4, 1.0
2023/02/23 06:20:00,89.4, 1.0
2023/02/23 06:30:00,89.4, 1.1
2023/02/23 06:40:00,89.6, 1.0
2023/02/23 06:50:00,89.7, 0.9
2023/02/23 07:00:00,89.7, 0.9
2023/02/23 07:10:00,89.7, 1.2
2023/02/23 07:20:00,89.6, 1.4
2023/02/23 07:30:00,89.6, 1.6
2023/02/23 07:40:00,89.7, 1.5
2023/02/23 07:50:00,89.7, 2.0
2023/02/23 08:00:00,89.5, 2.1
2023/02/23 08:10:00,89.3, 2.3
2023/02/23 08:20:00,89.1, 2.3
2023/02/23 08:30:00,89.2, 2.9
2023/02/23 08:40:00,89.1, 2.9
2023/02/23 08:50:00,89.0, 2.4
2023/02/23 09:00:00,89.0, 3.1
2023/02/23 09:10:00,89.0, 3.2
2023/02/23 09:20:00,88.9, 3.5
2023/02/23 09:30:00,88.9, 3.6
2023/02/23 09:40:00,88.9, 4.4
2023/02/23 09:50:00,89.0, 4.7
2023/02/23 10:00:00,89.0, 6.4
2023/02/23 10:10:00,89.1, 7.1
2023/02/23 10:20:00,89.0, 7.4
2023/02/23 10:30:00,88.9, 7.6
2023/02/23 10:40:00,88.9, 8.7
2023/02/23 10:50:00,89.0,10.6
2023/02/23 11:00:00,88.9,10.1
2023/02/23 11:10:00,88.9, 8.6
2023/02/23 11:20:00,89.0,10.9
2023/02/23 11:30:00,89.1,11.7
2023/02/23 11:40:00,88.9,11.3
2023/02/23 11:50:00,88.4,11.8
2023/02/23 12:00:00,88.0,11.5
2023/02/23 12:10:00,87.9,11.1
2023/02/23 12:20:00,87.8,10.3
2023/02/23 12:30:00,88.0, 9.9
2023/02/23 12:40:00,87.8, 9.9
2023/02/23 12:50:00,87.7,12.2
2023/02/23 13:00:00,87.3,11.1
2023/02/23 13:10:00,87.1,10.3
2023/02/23 13:20:00,87.2,14.4
2023/02/23 13:30:00,87.2,13.4
2023/02/23 13:40:00,86.7,11.9
2023/02/23 13:50:00,86.5,12.0
2023/02/23 14:00:00,86.3, 9.5
2023/02/23 14:10:00,86.1, 8.3
2023/02/23 14:20:00,85.8, 9.8
2023/02/23 14:30:00,85.5, 8.9
2023/02/23 14:40:00,85.2, 8.2
2023/02/23 14:50:00,85.0, 7.9
2023/02/23 15:00:00,84.8, 7.3
2023/02/23 15:10:00,84.7, 6.5
2023/02/23 15:20:00,84.4, 6.1
2023/02/23 15:30:00,84.3, 5.4
2023/02/23 15:40:00,84.1, 5.4
2023/02/23 15:50:00,84.1, 5.2
2023/02/23 16:00:00,84.0, 5.2
2023/02/23 16:10:00,84.0, 5.1
2023/02/23 16:20:00,83.8, 4.8
2023/02/23 16:30:00,83.8, 4.4
2023/02/23 16:40:00,83.7, 4.2
2023/02/23 16:50:00,83.7, 4.1
2023/02/23 17:00:00,83.7, 3.9
2023/02/23 17:10:00,83.7, 3.7
2023/02/23 17:20:00,83.7, 3.4
2023/02/23 17:30:00,83.6, 3.2
2023/02/23 17:40:00,83.5, 2.8
2023/02/23 17:50:00,83.5, 2.8
2023/02/23 18:00:00,83.5, 2.8
2023/02/23 18:10:00,83.5, 2.7
2023/02/23 18:20:00,83.5, 2.8
2023/02/23 18:30:00,83.3, 2.1
2023/02/23 18:40:00,83.2, 2.1
2023/02/23 18:50:00,83.3, 2.1
2023/02/23 19:00:00,83.2, 2.0
2023/02/23 19:10:00,83.2, 2.1
2023/02/23 19:20:00,83.2, 2.2
2023/02/23 19:30:00,83.2, 2.1
2023/02/23 19:40:00,83.1, 1.9
2023/02/23 19:50:00,83.1, 1.9
2023/02/23 20:00:00,83.1, 1.2
2023/02/23 20:10:00,83.1, 0.9
2023/02/23 20:20:00,83.0, 0.7
2023/02/23 20:30:00,82.9, 0.6
2023/02/23 20:40:00,82.8, 0.5
2023/02/23 20:50:00,82.8, 0.2
2023/02/23 21:00:00,82.8, 0.2
2023/02/23 21:10:00,82.8,-0.1
2023/02/23 21:20:00,82.8, 0.0
2023/02/23 21:30:00,82.8, 0.0
2023/02/23 21:40:00,82.8,-0.3
2023/02/23 21:50:00,82.9,-0.1
2023/02/23 22:00:00,82.9, 0.1
2023/02/23 22:10:00,83.0, 0.6
2023/02/23 22:20:00,82.9, 1.0
2023/02/23 22:30:00,83.0, 1.2
2023/02/23 22:40:00,83.0, 1.0
2023/02/23 22:50:00,83.0, 1.7
2023/02/23 23:00:00,82.9, 1.4
2023/02/23 23:10:00,82.9, 1.4
2023/02/23 23:20:00,82.9, 1.3
2023/02/23 23:30:00,83.0, 1.2
2023/02/23 23:40:00,83.1, 1.2
2023/02/23 23:50:00,82.9, 1.2
